�������l�o���
Date,Time,MP-1(��Sv/h),MP-2(��Sv/h),MP-3(��Sv/h),MP-4(��Sv/h),MP-5(��Sv/h),MP-6(��Sv/h),MP-7(��Sv/h),MP-8(��Sv/h),����,����(m/s),���J
2018/12/08,00:00,0.767,1.154,0.815,1.462,1.046,0.449,0.796,0.753,�k�k��,9.1,��
2018/12/08,00:10,0.769,1.155,0.816,1.462,1.045,0.448,0.795,0.753,�k�k��,13.0,��
2018/12/08,00:20,0.769,1.153,0.816,1.461,1.045,0.449,0.797,0.753,�k�k��,12.4,��
2018/12/08,00:30,0.769,1.156,0.815,1.462,1.045,0.447,0.794,0.753,�k�k��,10.7,��
2018/12/08,00:40,0.768,1.153,0.814,1.461,1.048,0.449,0.796,0.752,�k,8.1,��
2018/12/08,00:50,0.769,1.154,0.812,1.463,1.044,0.450,0.794,0.752,�k,6.2,��
2018/12/08,01:00,0.768,1.156,0.814,1.461,1.046,0.446,0.795,0.752,�k,7.1,��
2018/12/08,01:10,0.768,1.152,0.816,1.463,1.046,0.451,0.795,0.753,�k,7.5,��
2018/12/08,01:20,0.766,1.155,0.815,1.460,1.044,0.448,0.796,0.752,�k,6.3,��
2018/12/08,01:30,0.768,1.155,0.815,1.463,1.046,0.447,0.794,0.752,�k,6.7,��
2018/12/08,01:40,0.768,1.155,0.815,1.462,1.044,0.446,0.794,0.752,�k,7.4,��
2018/12/08,01:50,0.768,1.154,0.814,1.460,1.045,0.449,0.794,0.753,�k,6.8,��
2018/12/08,02:00,0.768,1.155,0.812,1.462,1.043,0.448,0.796,0.754,�k,6.6,��
2018/12/08,02:10,0.768,1.153,0.812,1.464,1.045,0.449,0.795,0.753,�k,6.3,��
2018/12/08,02:20,0.768,1.154,0.814,1.460,1.046,0.446,0.794,0.754,�k,6.0,��
2018/12/08,02:30,0.768,1.155,0.816,1.462,1.046,0.449,0.795,0.753,�k,5.5,��
2018/12/08,02:40,0.768,1.154,0.815,1.459,1.045,0.446,0.794,0.754,�k,5.4,��
2018/12/08,02:50,0.768,1.155,0.814,1.462,1.047,0.448,0.795,0.751,�k,5.7,��
2018/12/08,03:00,0.768,1.156,0.813,1.458,1.046,0.449,0.794,0.751,�k�k��,5.6,��
2018/12/08,03:10,0.769,1.156,0.812,1.462,1.044,0.448,0.794,0.752,�k�k��,5.6,��
2018/12/08,03:20,0.767,1.154,0.812,1.461,1.044,0.447,0.794,0.753,�k�k��,4.2,��
2018/12/08,03:30,0.766,1.154,0.814,1.464,1.044,0.446,0.796,0.751,�k�k��,5.1,��
2018/12/08,03:40,0.769,1.155,0.814,1.462,1.049,0.447,0.794,0.752,�k�k��,4.8,��
2018/12/08,03:50,0.768,1.155,0.815,1.464,1.045,0.448,0.795,0.752,�k�k��,5.3,��
2018/12/08,04:00,0.769,1.155,0.813,1.464,1.046,0.447,0.796,0.754,�k�k��,5.6,��
2018/12/08,04:10,0.768,1.156,0.814,1.463,1.045,0.448,0.794,0.752,�k�k��,6.6,��
2018/12/08,04:20,0.769,1.154,0.813,1.462,1.045,0.447,0.795,0.752,�k�k��,6.4,��
2018/12/08,04:30,0.768,1.155,0.814,1.459,1.045,0.446,0.795,0.752,�k�k��,5.9,��
2018/12/08,04:40,0.767,1.154,0.814,1.462,1.045,0.446,0.797,0.750,�k,5.4,��
2018/12/08,04:50,0.769,1.154,0.813,1.464,1.045,0.448,0.795,0.753,�k,4.2,��
2018/12/08,05:00,0.768,1.156,0.813,1.463,1.043,0.447,0.795,0.754,�k,5.1,��
2018/12/08,05:10,0.769,1.154,0.814,1.462,1.045,0.448,0.795,0.752,�k�k��,4.8,��
2018/12/08,05:20,0.767,1.153,0.814,1.463,1.046,0.446,0.794,0.753,�k,3.6,��
2018/12/08,05:30,0.769,1.155,0.813,1.461,1.045,0.447,0.795,0.752,�k,4.7,��
2018/12/08,05:40,0.767,1.154,0.816,1.461,1.046,0.448,0.794,0.753,�k,4.8,��
2018/12/08,05:50,0.769,1.156,0.814,1.460,1.045,0.449,0.796,0.752,�k,5.2,��
2018/12/08,06:00,0.769,1.154,0.814,1.462,1.048,0.447,0.796,0.754,�k,5.7,��
2018/12/08,06:10,0.769,1.154,0.815,1.459,1.046,0.448,0.795,0.752,�k,5.2,��
2018/12/08,06:20,0.769,1.155,0.813,1.461,1.047,0.447,0.794,0.751,�k,5.3,��
2018/12/08,06:30,0.769,1.157,0.814,1.462,1.047,0.447,0.793,0.753,�k�k��,5.3,��
2018/12/08,06:40,0.767,1.156,0.816,1.463,1.048,0.448,0.794,0.752,�k�k��,3.8,��
2018/12/08,06:50,0.768,1.154,0.814,1.461,1.045,0.447,0.794,0.752,�k�k��,4.5,��
2018/12/08,07:00,0.768,1.154,0.814,1.461,1.046,0.448,0.794,0.751,�k�k��,4.7,��
2018/12/08,07:10,0.767,1.156,0.812,1.461,1.047,0.448,0.794,0.752,�k�k��,4.8,��
2018/12/08,07:20,0.768,1.153,0.814,1.464,1.043,0.447,0.793,0.752,�k�k��,5.0,��
2018/12/08,07:30,0.767,1.156,0.811,1.461,1.046,0.446,0.794,0.753,�k�k��,4.8,��
2018/12/08,07:40,0.767,1.155,0.815,1.460,1.044,0.447,0.794,0.752,�k�k��,3.8,��
2018/12/08,07:50,0.771,1.154,0.814,1.461,1.048,0.448,0.795,0.752,�k�k��,4.2,��
2018/12/08,08:00,0.769,1.155,0.813,1.462,1.046,0.447,0.796,0.751,�k�k��,4.1,��
2018/12/08,08:10,0.767,1.155,0.815,1.462,1.047,0.447,0.795,0.750,�k�k��,4.0,��
2018/12/08,08:20,0.767,1.155,0.813,1.463,1.048,0.446,0.795,0.754,�k�k��,4.1,��
2018/12/08,08:30,0.768,1.152,0.812,1.460,1.046,0.448,0.794,0.752,�k�k��,3.8,��
2018/12/08,08:40,0.768,1.151,0.814,1.463,1.046,0.448,0.795,0.752,�k�k��,3.2,��
2018/12/08,08:50,0.771,1.152,0.812,1.462,1.046,0.447,0.796,0.753,�k�k��,2.8,��
2018/12/08,09:00,0.771,1.153,0.813,1.461,1.045,0.450,0.794,0.752,�k,2.9,��
2018/12/08,09:10,0.769,1.152,0.811,1.463,1.048,0.448,0.795,0.751,�k,3.5,��
2018/12/08,09:20,0.769,1.149,0.815,1.459,1.047,0.447,0.794,0.751,�k,3.8,��
2018/12/08,09:30,0.770,1.150,0.813,1.461,1.045,0.449,0.794,0.752,�k,2.6,��
2018/12/08,09:40,0.768,1.149,0.815,1.460,1.049,0.449,0.793,0.751,�k,3.0,��
2018/12/08,09:50,0.768,1.147,0.813,1.462,1.048,0.446,0.795,0.754,�k,3.2,��
2018/12/08,10:00,0.769,1.151,0.814,1.462,1.048,0.448,0.793,0.753,�k�k��,3.2,��
2018/12/08,10:10,0.769,1.151,0.814,1.463,1.050,0.448,0.794,0.753,�k,2.6,��
2018/12/08,10:20,0.769,1.149,0.814,1.463,1.050,0.447,0.794,0.754,�k�k��,3.3,��
2018/12/08,10:30,0.768,1.151,0.815,1.465,1.048,0.449,0.795,0.752,�k�k��,3.6,��
2018/12/08,10:40,0.769,1.152,0.813,1.461,1.049,0.447,0.794,0.752,�k,3.3,��
2018/12/08,10:50,0.771,1.153,0.814,1.463,1.048,0.448,0.794,0.753,�k,3.3,��
2018/12/08,11:00,0.772,1.152,0.814,1.462,1.047,0.448,0.794,0.754,�k,3.3,��
2018/12/08,11:10,0.770,1.152,0.815,1.461,1.050,0.448,0.795,0.753,�k�k��,3.8,��
2018/12/08,11:20,0.771,1.152,0.814,1.466,1.048,0.449,0.795,0.753,�k��,3.3,��
2018/12/08,11:30,0.769,1.152,0.816,1.462,1.050,0.447,0.794,0.755,�k�k��,3.2,��
2018/12/08,11:40,0.770,1.152,0.813,1.464,1.050,0.449,0.795,0.752,�k�k��,3.5,��
2018/12/08,11:50,0.770,1.152,0.814,1.463,1.051,0.449,0.795,0.752,�k��,3.2,��
2018/12/08,12:00,0.769,1.152,0.813,1.466,1.050,0.449,0.795,0.754,�k��,3.5,��
2018/12/08,12:10,0.771,1.155,0.816,1.464,1.051,0.447,0.795,0.753,�k��,3.1,��
2018/12/08,12:20,0.772,1.154,0.816,1.468,1.049,0.449,0.796,0.754,�k�k��,2.9,��
2018/12/08,12:30,0.771,1.151,0.817,1.466,1.051,0.448,0.795,0.753,�k�k��,2.6,��
2018/12/08,12:40,0.772,1.148,0.817,1.467,1.052,0.450,0.794,0.755,�k��,3.1,��
2018/12/08,12:50,0.773,1.150,0.817,1.464,1.052,0.450,0.795,0.754,���k��,3.1,��
2018/12/08,13:00,0.772,1.153,0.818,1.467,1.052,0.450,0.795,0.753,�k��,3.0,��
2018/12/08,13:10,0.773,1.154,0.816,1.465,1.049,0.450,0.794,0.754,�k�k��,3.6,��
2018/12/08,13:20,0.772,1.148,0.814,1.463,1.052,0.450,0.798,0.755,�k�k��,3.8,��
2018/12/08,13:30,0.771,1.151,0.816,1.467,1.050,0.450,0.795,0.754,�k�k��,3.9,��
2018/12/08,13:40,0.773,1.148,0.816,1.466,1.052,0.450,0.797,0.750,�k��,3.1,��
2018/12/08,13:50,0.773,1.149,0.816,1.467,1.053,0.450,0.798,0.754,�k�k��,3.1,��
2018/12/08,14:00,0.773,1.149,0.817,1.463,1.050,0.451,0.795,0.752,�k��,2.5,��
2018/12/08,14:10,0.772,1.151,0.816,1.464,1.053,0.451,0.796,0.751,�k��,2.5,��
2018/12/08,14:20,0.772,1.152,0.817,1.467,1.052,0.450,0.796,0.756,�k�k��,2.6,��
2018/12/08,14:30,0.771,1.152,0.814,1.466,1.053,0.451,0.797,0.754,�k,2.3,��
2018/12/08,14:40,0.772,1.153,0.816,1.466,1.052,0.449,0.797,0.756,�k�k��,3.1,��
2018/12/08,14:50,0.774,1.154,0.816,1.463,1.051,0.450,0.797,0.754,�k��,2.8,��
2018/12/08,15:00,0.772,1.153,0.819,1.465,1.051,0.450,0.797,0.754,�k,2.0,��
2018/12/08,15:10,0.770,1.152,0.816,1.466,1.050,0.449,0.796,0.754,�k,2.0,��
2018/12/08,15:20,0.773,1.156,0.815,1.467,1.051,0.449,0.796,0.755,�k,2.2,��
2018/12/08,15:30,0.772,1.155,0.817,1.463,1.051,0.449,0.796,0.754,�k�k��,1.7,��
2018/12/08,15:40,0.770,1.155,0.817,1.466,1.051,0.450,0.794,0.754,�k��,1.2,��
2018/12/08,15:50,0.772,1.155,0.815,1.466,1.050,0.448,0.796,0.753,�k�k��,0.6,��
2018/12/08,16:00,0.772,1.158,0.816,1.463,1.051,0.450,0.795,0.753,�k,0.9,��
2018/12/08,16:10,0.770,1.156,0.815,1.467,1.049,0.450,0.794,0.753,�k�k��,1.1,��
2018/12/08,16:20,0.771,1.156,0.815,1.464,1.050,0.449,0.795,0.752,�k�k��,0.6,��
2018/12/08,16:30,0.771,1.158,0.815,1.468,1.050,0.449,0.795,0.753,�k��,0.9,��
2018/12/08,16:40,0.772,1.158,0.816,1.464,1.050,0.449,0.795,0.752,�k�k��,1.1,��
2018/12/08,16:50,0.769,1.157,0.814,1.465,1.049,0.449,0.795,0.753,�k��,0.6,��
2018/12/08,17:00,0.771,1.155,0.817,1.467,1.048,0.448,0.795,0.753,-,CALM,��
2018/12/08,17:10,0.771,1.156,0.817,1.464,1.050,0.449,0.795,0.754,�k��,0.6,��
2018/12/08,17:20,0.770,1.155,0.814,1.465,1.049,0.449,0.796,0.752,���쐼,0.6,��
2018/12/08,17:30,0.771,1.155,0.815,1.463,1.051,0.448,0.795,0.753,�쐼,1.1,��
2018/12/08,17:40,0.770,1.155,0.817,1.464,1.050,0.447,0.794,0.754,�쐼,1.5,��
2018/12/08,17:50,0.769,1.157,0.816,1.464,1.049,0.448,0.796,0.753,�쐼,2.0,��
2018/12/08,18:00,0.773,1.155,0.815,1.463,1.052,0.449,0.793,0.753,��쐼,2.0,��
2018/12/08,18:10,0.770,1.155,0.816,1.465,1.050,0.449,0.794,0.752,��쐼,2.2,��
2018/12/08,18:20,0.772,1.159,0.816,1.465,1.052,0.449,0.796,0.752,��쐼,2.9,��
2018/12/08,18:30,0.773,1.155,0.818,1.464,1.050,0.448,0.793,0.753,�쐼,3.8,��
2018/12/08,18:40,0.770,1.157,0.817,1.466,1.049,0.450,0.794,0.753,�쐼,4.3,��
2018/12/08,18:50,0.771,1.156,0.815,1.466,1.052,0.450,0.794,0.753,�쐼,3.9,��
2018/12/08,19:00,0.770,1.156,0.815,1.466,1.049,0.449,0.796,0.752,���쐼,4.5,��
2018/12/08,19:10,0.769,1.154,0.815,1.465,1.048,0.449,0.795,0.754,��,5.2,��
2018/12/08,19:20,0.770,1.155,0.816,1.464,1.050,0.448,0.795,0.755,��,4.9,��
2018/12/08,19:30,0.772,1.156,0.814,1.466,1.051,0.449,0.795,0.753,��,5.2,��
2018/12/08,19:40,0.771,1.155,0.816,1.465,1.047,0.449,0.794,0.753,���k��,4.7,��
2018/12/08,19:50,0.768,1.155,0.816,1.465,1.047,0.449,0.795,0.754,���k��,5.5,��
2018/12/08,20:00,0.770,1.153,0.817,1.466,1.049,0.449,0.795,0.754,���k��,6.2,��
2018/12/08,20:10,0.771,1.156,0.816,1.463,1.049,0.450,0.795,0.754,���k��,7.1,��
2018/12/08,20:20,0.770,1.155,0.814,1.465,1.048,0.447,0.794,0.753,���k��,5.7,��
2018/12/08,20:30,0.772,1.155,0.815,1.465,1.051,0.449,0.794,0.753,�k��,5.3,��
2018/12/08,20:40,0.770,1.159,0.815,1.465,1.050,0.449,0.793,0.753,���k��,4.1,��
2018/12/08,20:50,0.770,1.157,0.816,1.466,1.049,0.449,0.793,0.754,���k��,6.2,��
2018/12/08,21:00,0.768,1.153,0.816,1.465,1.050,0.449,0.793,0.753,���k��,8.3,�L
2018/12/08,21:10,0.769,1.154,0.815,1.467,1.050,0.448,0.796,0.753,���k��,7.6,��
2018/12/08,21:20,0.770,1.156,0.816,1.465,1.049,0.448,0.794,0.754,���k��,6.0,��
2018/12/08,21:30,0.770,1.156,0.815,1.467,1.050,0.448,0.797,0.752,��,4.8,��
2018/12/08,21:40,0.770,1.157,0.816,1.465,1.049,0.448,0.798,0.754,���k��,5.4,��
2018/12/08,21:50,0.770,1.155,0.815,1.468,1.049,0.448,0.795,0.753,���k��,6.2,��
2018/12/08,22:00,0.770,1.154,0.815,1.467,1.047,0.449,0.797,0.752,���k��,6.5,��
2018/12/08,22:10,0.770,1.156,0.815,1.466,1.049,0.448,0.795,0.753,�k��,6.6,��
2018/12/08,22:20,0.770,1.157,0.816,1.467,1.048,0.450,0.795,0.754,�k�k��,6.0,��
2018/12/08,22:30,0.770,1.155,0.817,1.467,1.051,0.448,0.795,0.753,�k�k��,7.4,��
2018/12/08,22:40,0.770,1.156,0.815,1.466,1.049,0.448,0.796,0.754,�k�k��,7.7,��
2018/12/08,22:50,0.769,1.157,0.815,1.468,1.049,0.447,0.795,0.754,�k�k��,8.9,��
2018/12/08,23:00,0.769,1.156,0.814,1.468,1.050,0.448,0.795,0.753,�k�k��,8.5,��
2018/12/08,23:10,0.769,1.154,0.815,1.468,1.048,0.449,0.797,0.753,�k�k��,10.2,��
2018/12/08,23:20,0.769,1.156,0.814,1.464,1.047,0.445,0.795,0.754,�k�k��,8.3,��
2018/12/08,23:30,0.768,1.158,0.814,1.465,1.049,0.445,0.795,0.754,�k�k��,9.0,��
2018/12/08,23:40,0.768,1.154,0.812,1.465,1.050,0.445,0.793,0.752,�k�k��,9.1,��
2018/12/08,23:50,0.768,1.156,0.812,1.465,1.051,0.444,0.796,0.754,�k,9.2,��
